Home   Weather   Lugano   Past weeks

Flag for Switzerland Past Weather in Lugano, Switzerland — Yesterday and Last 2 Weeks

61 °F

Partly sunny.

Feels Like: 61 °F
Forecast: 37 / 64 °F
Wind: 3 mph from South

Location: Lugano Airport

Current Time: Oct 28, 2016 at 2:08:55 PM

Latest Report: Oct 28, 2016 at 1:20 PM

Visibility: 5 mi

Pressure: 30.51 "Hg

Humidity: 68%

Dew Point: 50 °F

Location of LuganoLocation

Past Weather in Lugano — Graph


Lugano Temperature Yesterday

Maximum temperature yesterday: 66 °F (at 3:20 PM)
Minimum temperature yesterday: 50 °F (at 9:50 AM)
Average temperature yesterday: 56 °F

High & Low Weather Summary for the Past Weeks

High68 °F (Oct 16, 2:50 PM)100% (Oct 13, 6:50 PM)30.51 "Hg (Oct 13, 6:50 PM)
Low41 °F (Oct 20, 8:20 AM)32% (Oct 20, 12:50 PM)29.83 "Hg (Oct 14, 1:50 PM)
Average53 °F92%30.12 "Hg
* Reported Oct 13 12:20 PM — Oct 28 12:50 PM, Lugano, Weather by CustomWeather, © 2016

Note: Actual official high and low records may vary slightly from our data, if they occured in-between our weather recording intervals... More about our weather records


Lugano Weather History for the Previous 24 Hours

Scroll right to see more
Time TempWeatherWind HumidityBarometerVisibility
12:50 PM
Fri, Oct 28
59 °FPartly sunny.2 mph72%30.51 "Hg5 mi
12:20 PM57 °FPartly sunny.2 mph77%30.51 "Hg5 mi
11:50 AM57 °FPartly sunny.1 mph77%30.51 "Hg5 mi
11:20 AM55 °FPartly sunny.2 mph82%30.51 "Hg4 mi
10:50 AM54 °FBroken clouds.2 mph88%30.51 "Hg4 mi
10:20 AM52 °FBroken clouds.2 mph94%30.51 "Hg4 mi
9:50 AM52 °FBroken clouds.3 mph88%30.51 "Hg4 mi
9:20 AM50 °FPartly sunny.1 mph94%30.51 "Hg4 mi
8:50 AM48 °FPartly sunny.3 mph100%30.51 "Hg4 mi
8:20 AM48 °FBroken clouds.1 mph100%30.48 "Hg4 mi
7:50 AM48 °FPartly cloudy.2 mph100%30.48 "Hg5 mi
7:20 AM48 °FPartly cloudy.1 mph100%30.48 "Hg6 mi
6:50 AM50 °FPartly cloudy.1 mph94%30.48 "Hg6 mi
6:20 AM50 °FPartly cloudy.1 mph94%30.48 "Hg5 mi
5:50 AM50 °FMostly cloudy.1 mph94%30.48 "Hg5 mi
5:20 AM50 °FPassing clouds.3 mph94%30.48 "HgN/A
4:50 AM50 °FPassing clouds.2 mph94%30.45 "HgN/A
4:20 AM50 °FPassing clouds.2 mph94%30.45 "HgN/A
3:50 AM52 °FOvercast.1 mph94%30.45 "HgN/A
3:20 AM52 °FMostly cloudy.2 mph94%30.45 "HgN/A
2:50 AM52 °FLow clouds.2 mph94%30.45 "HgN/A
2:20 AM52 °FPassing clouds.2 mph94%30.45 "HgN/A
1:50 AM50 °FPartly cloudy.3 mph94%30.45 "HgN/A
1:20 AM52 °FPassing clouds.3 mph94%30.45 "HgN/A
12:50 AM52 °FPassing clouds.5 mph94%30.45 "HgN/A
12:20 AM52 °FPartly cloudy.3 mph94%30.45 "HgN/A
11:50 PM
Thu, Oct 27
52 °FPartly cloudy.2 mph94%30.45 "HgN/A
11:20 PM52 °FPassing clouds.3 mph94%30.45 "HgN/A
10:50 PM52 °FPartly cloudy.5 mph94%30.45 "HgN/A
10:20 PM52 °FPassing clouds.3 mph100%30.45 "HgN/A
9:50 PM54 °FPassing clouds.1 mph94%30.42 "HgN/A
9:20 PM54 °FPassing clouds.2 mph94%30.42 "HgN/A
8:50 PM54 °FPassing clouds.3 mph100%30.42 "HgN/A
8:20 PM54 °FPassing clouds.No wind100%30.39 "HgN/A
7:50 PM55 °FPassing clouds.1 mph94%30.39 "HgN/A
7:20 PM55 °FPassing clouds.1 mph94%30.39 "HgN/A
6:50 PM57 °FPassing clouds.1 mph88%30.36 "HgN/A
6:20 PM59 °FPassing clouds.2 mph88%30.36 "HgN/A
5:50 PM63 °FPassing clouds.3 mph77%30.33 "HgN/A
5:20 PM64 °FPassing clouds.5 mph73%30.33 "HgN/A
4:50 PM64 °FPassing clouds.6 mph68%30.33 "HgN/A
4:20 PM66 °FPassing clouds.6 mph64%30.33 "HgN/A
3:50 PM66 °FPassing clouds.6 mph68%30.33 "HgN/A
3:20 PM66 °FPassing clouds.6 mph64%30.33 "HgN/A
2:50 PM64 °FPassing clouds.7 mph68%30.33 "HgN/A
2:20 PM63 °FPassing clouds.6 mph73%30.36 "HgN/A
Weather by CustomWeather, © 2016

See weather overviewHow to use our weather pages